Marshall, MN

6:07 AM CDT on March 28, 2017 (GMT -0500)
Marshall Municipal-Ryan

Weather History for KMML - January, 2013

Change the Weather History Date:

Thursday, January 17, 2013

  Actual Average Record
Temperature  
Mean Temperature 14 °F -  
Max Temperature 26 °F 24 °F 48 °F (1974)
Min Temperature 1 °F 3 °F -27 °F (1977)
Degree Days  
Heating Degree Days 52    
Moisture  
Dew Point 8 °F    
Average Humidity 70    
Maximum Humidity 86    
Minimum Humidity 52    
Precipitation  
Precipitation 0.00 in - - ()
Sea Level Pressure  
Sea Level Pressure 30.32 in    
Wind  
Wind Speed 9 mph (North)    
Max Wind Speed 17 mph    
Max Gust Speed -    
Visibility 10 miles    
Events      
Averages and records for this station are not official NWS values.
T = Trace of Precipitation, MM = Missing Value Source: NWS Daily Summary

Daily Weather History Graph

Daily Weather History Graph

Search for Another Location

Airport or City:

Trip Planner

Search our weather history database for the weather conditions in past years. The results will help you decide how hot, cold, wet, or windy it might be!

Date:

Astronomy

Jan. 17, 2013 Rise Set
Actual Time 7:54 AM CST 5:12 PM CST
Civil Twilight 7:22 AM CST 5:44 PM CST
Nautical Twilight 6:46 AM CST 6:20 PM CST
Astronomical Twilight 6:12 AM CST 6:55 PM CST
Moon 10:45 AM CST (1/17) No Moon Set
Length of Visible Light 10h 22m
Length of Day
9h 17m
Waxing Crescent, 38% of the Moon is Illuminated
Jan 17
Waxing Crescent
Jan 18
First Quarter
Jan 26
Full
Feb 3
Last Quarter
Feb 10
New

Hourly Weather History & Observations

Time (CST) Temp. Windchill Dew Point Humidity Pressure Visibility Wind Dir Wind Speed Gust Speed Precip Events Conditions
12:15 AM 3.2 °F -7.8 °F -5.8 °F 66% 30.27 in 10.0 mi NW 5.8 mph - N/A   Clear
12:35 AM 3.2 °F -9.1 °F -7.6 °F 61% 30.27 in 10.0 mi NW 6.9 mph - N/A   Clear
12:55 AM 3.2 °F -11.3 °F -5.8 °F 66% 30.29 in 10.0 mi NNW 9.2 mph - N/A   Clear
1:15 AM 3.2 °F -13.9 °F -7.6 °F 61% 30.31 in 10.0 mi NNW 12.7 mph - N/A   Clear
1:35 AM 3.2 °F -13.9 °F -7.6 °F 61% 30.32 in 10.0 mi NNW 12.7 mph - N/A   Clear
1:55 AM 3.2 °F -12.2 °F -7.6 °F 61% 30.33 in 10.0 mi NNW 10.4 mph - N/A   Scattered Clouds
2:15 AM 1.4 °F -13.5 °F -9.4 °F 61% 30.33 in 10.0 mi NW 9.2 mph - N/A   Partly Cloudy
2:35 AM 1.4 °F -12.5 °F -9.4 °F 61% 30.33 in 10.0 mi NW 8.1 mph - N/A   Clear
3:35 AM 3.2 °F -11.3 °F -9.4 °F 56% 30.34 in 10.0 mi WNW 9.2 mph - N/A   Overcast
3:55 AM 5.0 °F -8.1 °F -7.6 °F 56% 30.35 in 10.0 mi West 8.1 mph - N/A   Overcast
4:15 AM 5.0 °F -4.1 °F -7.6 °F 56% 30.34 in 10.0 mi West 4.6 mph - N/A   Overcast
4:35 AM 6.8 °F -5.9 °F -7.6 °F 52% 30.35 in 10.0 mi WNW 8.1 mph - N/A   Overcast
4:55 AM 6.8 °F -4.8 °F -5.8 °F 56% 30.36 in 10.0 mi West 6.9 mph - N/A   Overcast
5:15 AM 6.8 °F -4.8 °F -4.0 °F 61% 30.34 in 10.0 mi WSW 6.9 mph - N/A   Overcast
5:35 AM 6.8 °F -5.9 °F -7.6 °F 52% 30.35 in 10.0 mi WSW 8.1 mph - N/A   Overcast
5:55 AM 8.6 °F -3.7 °F -2.2 °F 62% 30.35 in 10.0 mi WSW 8.1 mph - N/A   Overcast
6:15 AM 8.6 °F -4.7 °F -2.2 °F 62% 30.32 in 10.0 mi SSW 9.2 mph - N/A   Overcast
6:35 AM 8.6 °F 0.1 °F -2.2 °F 62% 30.32 in 10.0 mi South 4.6 mph - N/A   Overcast
6:55 AM 10.4 °F 4.0 °F -2.2 °F 57% 30.33 in 10.0 mi SE 3.5 mph - N/A   Overcast
7:15 AM 10.4 °F -0.4 °F -0.4 °F 62% 30.32 in 10.0 mi SSE 6.9 mph - N/A   Overcast
7:35 AM 10.4 °F -2.4 °F -0.4 °F 62% 30.31 in 10.0 mi SSE 9.2 mph - N/A   Overcast
7:55 AM 10.4 °F -1.5 °F 1.4 °F 67% 30.31 in 10.0 mi South 8.1 mph - N/A   Mostly Cloudy
8:15 AM 12.2 °F 2.9 °F 1.4 °F 62% 30.31 in 10.0 mi SSE 5.8 mph - N/A   Mostly Cloudy
8:35 AM 12.2 °F 6.1 °F 3.2 °F 67% 30.32 in 10.0 mi South 3.5 mph - N/A   Partly Cloudy
8:55 AM 12.2 °F - 3.2 °F 67% 30.32 in 10.0 mi Calm Calm - N/A   Partly Cloudy
9:15 AM 15.8 °F - 6.8 °F 68% 30.34 in 10.0 mi Calm Calm - N/A   Clear
9:35 AM 15.8 °F 8.6 °F 6.8 °F 68% 30.36 in 10.0 mi West 4.6 mph - N/A   Scattered Clouds
9:55 AM 19.4 °F 5.0 °F 12.2 °F 74% 30.36 in 10.0 mi West 16.1 mph - N/A   Mostly Cloudy
10:15 AM 21.2 °F 7.3 °F 12.2 °F 68% 30.36 in 10.0 mi West 16.1 mph - N/A   Scattered Clouds
10:35 AM 23.0 °F 10.6 °F 15.8 °F 74% 30.37 in 10.0 mi West 13.8 mph - N/A   Clear
10:55 AM 24.8 °F 12.9 °F 17.6 °F 74% 30.37 in 10.0 mi West 13.8 mph - N/A   Mostly Cloudy
11:15 AM 26.6 °F 13.8 °F 17.6 °F 69% 30.37 in 10.0 mi WNW 17.3 mph - N/A   Overcast
11:35 AM 26.6 °F 14.7 °F 17.6 °F 69% 30.37 in - WNW 15.0 mph - N/A   Overcast
12:15 PM 26.6 °F 15.7 °F 19.4 °F 74% 30.37 in 10.0 mi NW 12.7 mph - N/A   Overcast
12:35 PM 26.6 °F 15.2 °F 19.4 °F 74% 30.37 in 10.0 mi NW 13.8 mph - N/A   Overcast
12:55 PM 26.6 °F 16.2 °F 19.4 °F 74% 30.37 in 10.0 mi NNW 11.5 mph - N/A   Overcast
1:15 PM 26.6 °F 15.7 °F 17.6 °F 69% 30.36 in 10.0 mi NNW 12.7 mph - N/A   Overcast
1:35 PM 26.6 °F 16.2 °F 17.6 °F 69% 30.34 in 10.0 mi NNW 11.5 mph - N/A   Overcast
1:55 PM 26.6 °F 16.8 °F 17.6 °F 69% 30.34 in 10.0 mi NNW 10.4 mph - N/A   Overcast
2:15 PM 26.6 °F 16.2 °F 19.4 °F 74% 30.35 in 10.0 mi North 11.5 mph - N/A   Overcast
2:55 PM 26.6 °F 16.8 °F 17.6 °F 69% 30.34 in 10.0 mi North 10.4 mph - N/A   Overcast
3:15 PM 24.8 °F 15.3 °F 17.6 °F 74% 30.35 in 10.0 mi North 9.2 mph - N/A   Mostly Cloudy
3:55 PM 24.8 °F 15.3 °F 17.6 °F 74% 30.35 in 10.0 mi NNE 9.2 mph - N/A   Overcast
4:15 PM 24.8 °F 16.9 °F 17.6 °F 74% 30.35 in 10.0 mi NE 6.9 mph - N/A   Overcast
4:35 PM 23.0 °F 17.0 °F 17.6 °F 80% 30.35 in 10.0 mi NNE 4.6 mph - N/A   Overcast
4:55 PM 23.0 °F 15.8 °F 17.6 °F 80% 30.35 in 10.0 mi NNE 5.8 mph - N/A   Overcast
5:15 PM 23.0 °F 15.8 °F 17.6 °F 80% 30.36 in 10.0 mi NNE 5.8 mph - N/A   Overcast
5:35 PM 21.2 °F 11.7 °F 15.8 °F 80% 30.35 in 10.0 mi NE 8.1 mph - N/A   Overcast
5:55 PM 21.2 °F 12.6 °F 14.0 °F 74% 30.34 in 10.0 mi NE 6.9 mph - N/A   Overcast
6:15 PM 21.2 °F 13.6 °F 15.8 °F 80% 30.34 in 10.0 mi ENE 5.8 mph - N/A   Overcast
6:35 PM 19.4 °F 11.5 °F 15.8 °F 86% 30.34 in 10.0 mi ENE 5.8 mph - N/A   Scattered Clouds
6:55 PM 19.4 °F 11.5 °F 12.2 °F 74% 30.34 in 10.0 mi ENE 5.8 mph - N/A   Mostly Cloudy
7:15 PM 19.4 °F 11.5 °F 14.0 °F 80% 30.34 in 10.0 mi ENE 5.8 mph - N/A   Mostly Cloudy
7:35 PM 19.4 °F 10.4 °F 14.0 °F 80% 30.32 in 10.0 mi East 6.9 mph - N/A   Mostly Cloudy
7:55 PM 19.4 °F 10.4 °F 12.2 °F 74% 30.32 in 10.0 mi East 6.9 mph - N/A   Partly Cloudy
8:15 PM 19.4 °F 10.4 °F 12.2 °F 74% 30.31 in 10.0 mi East 6.9 mph - N/A   Mostly Cloudy
8:55 PM 17.6 °F 6.4 °F 12.2 °F 79% 30.28 in 10.0 mi SE 9.2 mph - N/A   Mostly Cloudy
9:15 PM 17.6 °F 7.3 °F 12.2 °F 79% 30.27 in 10.0 mi ESE 8.1 mph - N/A   Scattered Clouds
9:35 PM 19.4 °F 9.5 °F 12.2 °F 74% 30.26 in 10.0 mi ESE 8.1 mph - N/A   Mostly Cloudy
9:55 PM 19.4 °F 7.2 °F 12.2 °F 74% 30.25 in 10.0 mi ESE 11.5 mph - N/A   Mostly Cloudy
10:15 PM 19.4 °F 7.2 °F 12.2 °F 74% 30.24 in 10.0 mi ESE 11.5 mph - N/A   Mostly Cloudy
10:35 PM 19.4 °F 8.6 °F 12.2 °F 74% 30.23 in 10.0 mi ESE 9.2 mph - N/A   Overcast
10:55 PM 19.4 °F 7.9 °F 14.0 °F 80% 30.21 in 10.0 mi SE 10.4 mph - N/A   Overcast
11:15 PM 19.4 °F 7.2 °F 15.8 °F 86% 30.19 in 10.0 mi SE 11.5 mph - N/A   Mostly Cloudy
11:35 PM 19.4 °F 6.0 °F 15.8 °F 86% 30.17 in 10.0 mi SE 13.8 mph - N/A   Mostly Cloudy
11:55 PM 21.2 °F 7.8 °F 15.8 °F 80% 30.14 in 10.0 mi SSE 15.0 mph - N/A   Mostly Cloudy